Location: Beneden-Haastrecht
(52.0012°N, 4.7557°E)
Time: 02:48:09
(UTC+00:00)

USA 306 - Pass Details

Date: 24 October 2020
Orbit: 569 x 577 km, 54.0° (Epoch: 22 November)

Event Time Altitude Azimuth Distance (km) Brightness Sun altitude
Rises 17:43:42 0° 280° (W) 2,786 8.1 -12.4°
Reaches altitude 10° 17:45:58 10° 283° (WNW) 1,886 6.8 -12.7°
Maximum altitude 17:50:15 69° 7° (N) 616 3.0 -13.4°
Enters shadow 17:52:52 23° 87° (E) 1,248 4.0 -13.8°
